Member area
Imprimable
Visé, 13/05/2018, BEL - Maasmarathon de la Basse-Meuse
List of reports > Marathon - Après 30km
Search: Page: [1] 2
539 Entries
 
Complains are not accepted anymore. Results are final.
Category
PosNrNameAgeNATTeamRealTimeTkmMoy.PlaceNameCity
1.4EL MOUAZIZ Abdelhadi41MAR1:43:393:28 17.371h40ESPAKAT?l?chargez votre diplome!
2.3MIERECZKO Maciek39POL1:45:053:31 17.131h35WJOCTEUWEKT?l?chargez votre diplome!
3.5STITZINGER Patrick37NLDMAASRUBBERS1:45:063:31 17.132h35EIJSDENT?l?chargez votre diplome!
4.628DEMIRKAZAN Mikail25TURMJ SPORT1:49:063:39 16.501senT?l?chargez votre diplome!
5.14PHILIPPE Patrick49BELJOG IN ATTITUDE1:49:063:39 16.501h45LIÈGET?l?chargez votre diplome!
6.446NID Rumphakwaen50BEL1:49:063:39 16.501h50GRIMBERGENT?l?chargez votre diplome!
7.607MATHOT Michel44BEL1:51:383:44 16.132h40LES TAILLEST?l?chargez votre diplome!
8.33DEWILDE Kristof39BELGAVERTRIMMERS1:53:193:47 15.883h35KUURNET?l?chargez votre diplome!
9.273WITHOFS Peter35BEL1:53:343:48 15.854h35DIEPENBEEKT?l?chargez votre diplome!
10.427DEXTERS Dirk33BEL1:53:373:48 15.842senMAASMECHELENT?l?chargez votre diplome!
11.152PASQUE Cedric39BELLES BOUFFIOLS1:53:483:48 15.825h35BOUFFIOULXT?l?chargez votre diplome!
12.506DAMBLON Johnathab40BEL1:53:593:48 15.793h40ATHT?l?chargez votre diplome!
13.529MATHOT Patrice51BEL1:54:423:50 15.692h50JAMIOULXT?l?chargez votre diplome!
14.428LAMBERT Birger35BEL1:54:483:50 15.686h35BLANKENBERGET?l?chargez votre diplome!
15.1016MONIOTTE Stéphane45BELNOS ENFANTS CAR1:56:393:54 15.432h45BRUXELLEST?l?chargez votre diplome!
16.25GUISSART Alain46BEL1:57:013:55 15.383h45BLEGNYT?l?chargez votre diplome!
17.38MILLIS Andrew59GBR1:58:153:57 15.221h55FLEETT?l?chargez votre diplome!
18.357NIKI Steenkamp45ZAF1:58:153:57 15.224h45STELLENBOSCHT?l?chargez votre diplome!
19.457LOURTIE Thibaut33BELCHC1:58:313:57 15.193senHERVET?l?chargez votre diplome!
20.450GERON David43BELCHC1:58:313:58 15.194h40AUBELT?l?chargez votre diplome!
21.220BELLEFROID Pieter31BEL1:58:313:58 15.194senBORGLOONT?l?chargez votre diplome!
22.431BLANCHY Regis24BELCHC1:58:313:58 15.195senOLNET?l?chargez votre diplome!
23.263RICHARDSON Neil40GBR1:58:313:58 15.195h40BATHT?l?chargez votre diplome!
24.260MOMMEN Pascal43BEL1:58:313:58 15.196h40HASSELTT?l?chargez votre diplome!
25.315NAESSENS Steven38BEL1:58:313:58 15.197h35WESTVLETERENT?l?chargez votre diplome!
26.415JOOS Pauwel52BEL1:58:323:58 15.193h50MALDEGEMT?l?chargez votre diplome!
27.84PETIT Pascal46BEL1:58:413:58 15.175h45LIEGET?l?chargez votre diplome!
28.406LECLERCQ Philippe41BELTRIATHLIEGE1:59:073:59 15.117h40LIEGET?l?chargez votre diplome!
29.187ESSABRI Nasser55BELSERUNNERS1:59:073:59 15.112h55SERAINGT?l?chargez votre diplome!
30.270VANGENEUGDEN Raf42BEL1:59:354:00 15.058h40HASSELTT?l?chargez votre diplome!
31.20SCHOONBROODT Jo68NLDMAASRUNNERS1:59:364:00 15.051h65MAASTRICHTT?l?chargez votre diplome!
32.48THEUNISSEN Iwan46NLDLANDGRAAF1:59:374:00 15.056h45LANDGRAAFT?l?chargez votre diplome!
33.326PLOUM Roy42NLDSTB LANDGRAAF1:59:374:00 15.059h40LANDGRAAFT?l?chargez votre diplome!
34.390REYNAERTS Bram36BEL1:59:374:00 15.058h35HALLET?l?chargez votre diplome!
35.487BRANTS Philipe42BEL1:59:384:00 15.0510h40PUTTET?l?chargez votre diplome!
36.436VANDEBEEK Patrick44BELAC BERTEM - KNO1:59:384:00 15.0511h40AARSCHOTT?l?chargez votre diplome!
37.449PALFI Janos41HUN1:59:524:00 15.0212h40RIEMSTT?l?chargez votre diplome!
38.541GREGOIRE Joel43BELTEAM JARDIN DIV1:59:574:00 15.0113h40GRIVEGNEET?l?chargez votre diplome!
39.559DIEDEREN Phil46BELTCBM1:59:574:00 15.017h45SAINT ANDRET?l?chargez votre diplome!
40.316GALLE Koen35BEL2:00:074:01 14.999h35SCHAARBEEKT?l?chargez votre diplome!
41.513REYNAERTS Dries34BEL2:00:084:01 14.986senWOLVERTEMT?l?chargez votre diplome!
42.585KOEN Sommers49BEL2:00:184:01 14.968h45T?l?chargez votre diplome!
43.451DEWAIDE Antoni45BELAD2:00:314:02 14.949h45TINLOTT?l?chargez votre diplome!
44.626LEUS Frankie56BEL2:00:324:02 14.943h55HERENTHOUTT?l?chargez votre diplome!
45.100DELERS Maximilien32BELTHEODO TEMPO2:00:464:02 14.917senSOIGNIEST?l?chargez votre diplome!
46.323MANTIONE Calogero39BEL2:00:504:02 14.9010h35REBECQT?l?chargez votre diplome!
47.588HERMAN Christophe34FRA2:01:044:03 14.878senT?l?chargez votre diplome!
48.503ROETS Eric48BEL2:01:564:04 14.7610h45BEKKEVOORTT?l?chargez votre diplome!
49.176HOOL Frans53NLDATLETIEK AVON H2:02:044:05 14.754h50MERKELBEEKT?l?chargez votre diplome!
50.564FCHAMPION Juilet39BELTRAKKS2:02:574:06 14.641f35LA HULPET?l?chargez votre diplome!
51.117DAEMS Carl54BEL2:03:094:07 14.625h50VIERSELT?l?chargez votre diplome!
52.562DE RIDDER Ivo50BELSPIRIDON AALST2:03:284:07 14.586h50HOFSTADET?l?chargez votre diplome!
53.623ROSIER Benoit46BEL2:03:414:08 14.5511h45FLORENVILLET?l?chargez votre diplome!
54.552LEHANCE Pascal46BELRFCL2:03:414:08 14.5512h45T?l?chargez votre diplome!
55.460DE PAUW Tim36BEL2:03:544:08 14.5311h35DIESTT?l?chargez votre diplome!
56.341DIERCKX Gert43BEL2:04:074:09 14.5014h40WESTERLOT?l?chargez votre diplome!
57.548PIRNAY Julien32BEL2:05:014:11 14.409senBAELENT?l?chargez votre diplome!
58.421SCHOCKAERT Hedwig58BELSPIRIDON AALST2:05:334:12 14.344h55HOFSTADE-AALSTT?l?chargez votre diplome!
59.231LANGENUS Freddy63BELGESHAALOPERS2:05:364:12 14.331h60KEERBERGENT?l?chargez votre diplome!
60.458COSSEMENT Steven44BELGAVERTRIMMERS2:06:074:13 14.2715h40HARELBEKET?l?chargez votre diplome!
61.478BOSSAER Patrick54BELMMC2:06:104:13 14.277h50HOEGAARDENT?l?chargez votre diplome!
62.44DESCAMPS François37BELTHÉODO TEMPO2:06:214:13 14.2512h35MONTIGNIES LEZ LENST?l?chargez votre diplome!
63.251DELCROIX Jerome40FRAJEROME DELCROIX2:06:264:13 14.2416h40PONT SUR SAMBRET?l?chargez votre diplome!
64.387DAS Bert44BEL2:06:264:13 14.2417h40LINKHOUTT?l?chargez votre diplome!
65.83COSTERMANS Peter37BEL2:06:344:14 14.2213h35HELCHTERENT?l?chargez votre diplome!
66.52LEPLAE Charles38BEL2:07:064:15 14.1614h35CHASTRET?l?chargez votre diplome!
67.600MUYLKENS Thibaut28BEL2:07:224:15 14.1310senHERVET?l?chargez votre diplome!
68.198CHARLIER Pierre47BEL2:07:494:16 14.0813h45BILSTAINT?l?chargez votre diplome!
69.612MAILLARD Guillaume29FRA2:08:044:17 14.0611senT?l?chargez votre diplome!
70.286COLEMONTS Gilles45BELMANON FOREVER2:08:134:17 14.0414h45HINGEONT?l?chargez votre diplome!
71.462ROELANTS Luc55BEL2:09:124:19 13.935h55WILSELET?l?chargez votre diplome!
72.138DAVREUX Benoit43BEL2:09:554:20 13.8618h404880T?l?chargez votre diplome!
73.57OLSSON Mikael48SWESPORTIVAMENTE2:10:094:21 13.8315h45BRUXELLEST?l?chargez votre diplome!
74.394WESLEY Zajc26BELRUN&FUN GENK2:10:364:22 13.7812senGENKT?l?chargez votre diplome!
75.637SEYNAEVE Xavier39BEL2:13:274:27 13.4915h35T?l?chargez votre diplome!
76.592JANSEN Chris49NLD2:14:294:29 13.3816h45T?l?chargez votre diplome!
77.46HAEGHEBAERT Peter55BELFLAC ROESELARE2:14:474:30 13.366h55ROESELARET?l?chargez votre diplome!
78.302GOUDKADE Danny33NLDDANNY GOUDKADE2:16:374:34 13.1813senMEERSSENT?l?chargez votre diplome!
79.88VAN HEERDE Gerard34NLD2:16:374:34 13.1814senNIJMEGENT?l?chargez votre diplome!
80.627CRYNS Bart38BEL2:16:484:34 13.1616h35OVERPELTT?l?chargez votre diplome!
81.533MELARD Jean-Emile36BEL2:16:514:34 13.1517h35JUPRELLET?l?chargez votre diplome!
82.521KERSTENS Michel55BEL2:16:514:34 13.157h55BEERSET?l?chargez votre diplome!
83.593VAN DER BORGH Roger44NLD2:16:524:34 13.1519h40T?l?chargez votre diplome!
84.558GOMZE Michel51BELSKINFIT2:16:524:34 13.158h50ENSIVALT?l?chargez votre diplome!
85.500KÉRIS Roland49BEL2:16:524:34 13.1517h45THIMISTER-CLERMONTT?l?chargez votre diplome!
86.79VAN GHELUWE Rémi38FRAJACO2:16:574:34 13.1418h35LA NEUVILLE AUX JOUTEST?l?chargez votre diplome!
87.143GEETS Kris48BELADD2:16:584:34 13.1418h45VLIERMAALROOTT?l?chargez votre diplome!
88.366TERMONIA Piet47BEL2:17:014:35 13.1419h45GERAARDSBERGENT?l?chargez votre diplome!
89.498JOHN Hermans53NLDMAASRUNNERS2:17:014:35 13.149h50MAASTRICHTT?l?chargez votre diplome!
90.250CEUPPENS Joeri42BEL2:17:174:35 13.1120h40ROTSELAART?l?chargez votre diplome!
91.526WUIDARD Nicolas31BEL2:17:214:35 13.1115senPETIT-RECHAINT?l?chargez votre diplome!
92.476VAN NESTE Leander36BEL2:17:334:36 13.0919h35HOEGAARDENT?l?chargez votre diplome!
93.85CHAPPIN Michel31NLD2:17:394:36 13.0816senMAASTRICHTT?l?chargez votre diplome!
94.371VAN GINKEL Alex28NLD2:17:454:36 13.0717senEINDHOVENT?l?chargez votre diplome!
95.95MARTIN Michel46BELTEAM PRIVILÈGE 2:18:064:37 13.0320h45MARCHE-EN-FAMENNET?l?chargez votre diplome!
96.410POESEN Frank39BEL2:18:074:37 13.0320h35MUNSTERBILZENT?l?chargez votre diplome!
97.275FRAITURE Thomas34BELTHEODOTEMPO2:18:084:37 13.0318senSOIGNIEST?l?chargez votre diplome!
98.578SPINOSA Anthony33BEL2:18:144:37 13.0219senHERMÉET?l?chargez votre diplome!
99.68VOETS Ronny50NLD2:18:204:37 13.0110h50BESTT?l?chargez votre diplome!
100.595MACHIELSEN Robbie45NLDAV SPRINT2:18:214:37 13.0121h45T?l?chargez votre diplome!
101.356DE COCK Michael44BEL2:18:254:37 13.0021h40CHASTRET?l?chargez votre diplome!
102.380TOUBEAU Julien38BELWE TRAIL2:18:284:37 13.0021h35VALENCIENNEST?l?chargez votre diplome!
103.50ABEN Filip41BEL2:18:394:38 12.9822h40HASSELTT?l?chargez votre diplome!
104.215CANTAERT Joris29BEL2:18:444:38 12.9820senGENTT?l?chargez votre diplome!
105.175FUCHS Thomas43DEU2:18:514:38 12.9623h40HERZOGENRATHT?l?chargez votre diplome!
106.596LEMPERS Jos61NLD2:18:554:38 12.962h60T?l?chargez votre diplome!
107.248BECK Geoffrey44BELLES FOULLÉES DU2:18:594:38 12.9524h40TIHANGET?l?chargez votre diplome!
108.624GUSTIN Steve38BEL2:18:594:38 12.9522h35HUYT?l?chargez votre diplome!
109.420DENDAL Didier55BEL2:19:094:39 12.948h55LIÈGET?l?chargez votre diplome!
110.590OGER Stephan37BEL2:19:174:39 12.9223h35T?l?chargez votre diplome!
111.461WALLÉE Alain62BELTENDONS LA HULP2:19:184:39 12.923h60LA HULPET?l?chargez votre diplome!
112.345DE PAOLIS Julien27BEL2:19:364:40 12.8921senSAINT-NICOLAST?l?chargez votre diplome!
113.202EILANDER Eric34NLD2:19:364:40 12.8922senHOOGEVEENT?l?chargez votre diplome!
114.264ROTTIERS Daniel44BEL2:19:414:40 12.8925h40KESSEL-LOT?l?chargez votre diplome!
115.55WESTERHOFF Frank51DEU2:20:044:41 12.8511h50THEDINGHAUSENT?l?chargez votre diplome!
116.636PIRSON Stephane50BELRUNNERS BERNEAU2:20:084:41 12.8512h50HEURE-LE-ROMAINT?l?chargez votre diplome!
117.581VAN VAERENBERGH Filip28BEL2:20:174:41 12.8323senSINT-NIKLAAST?l?chargez votre diplome!
118.364TOM Elsten33NLD2:20:274:41 12.8224senEINDHOVENT?l?chargez votre diplome!
119.527THOONEN Erik60BELGEMS JOGGERS2:20:314:42 12.814h60DIEPENBEEKT?l?chargez votre diplome!
120.534RENAULD Michel42BEL2:20:474:42 12.7926h40WARSSAGET?l?chargez votre diplome!
121.70DELHEZ Claude58BELJIA2:20:534:42 12.789h55BONCELLEST?l?chargez votre diplome!
122.346SPITAEL Jan54BELALVA2:21:474:44 12.7013h50HOFSTADET?l?chargez votre diplome!
123.425DORCHAIN Luc54BELJEM ACTIVE2:22:154:45 12.6614h50MOUSTIER SUR SAMBRET?l?chargez votre diplome!
124.216DELEYE Brecht33BEL2:22:184:45 12.6525senSINT-ELOOIS-WINKELT?l?chargez votre diplome!
125.43HENDRICÉ Gilles50BEL2:22:354:46 12.6315h50CHAUDFONTAINET?l?chargez votre diplome!
126.469ENEMAN Bart44BEL2:22:384:46 12.6227h40ZOLDERT?l?chargez votre diplome!
127.241VANHAEZEBROUCK Kurt50BEL2:22:494:46 12.6016h50IZEGEMT?l?chargez votre diplome!
128.437MCCARTHY Mike53GBRSEVENOAKS AC2:22:554:46 12.6017h50LOOSDRECHTT?l?chargez votre diplome!
129.619FORÊT Michaël35BEL2:22:564:46 12.5924h35OUPEYET?l?chargez votre diplome!
130.295MOREEL Wout40BELTIENSE JOGGERS2:22:584:46 12.5928h40TIENENT?l?chargez votre diplome!
131.294MANNEKENS Stéphane54BEL2:22:594:46 12.5918h50TIENENT?l?chargez votre diplome!
132.272WATY Dimitri38BEL2:23:174:47 12.5625h35MALMEDYT?l?chargez votre diplome!
133.544VERSCHUEREN Peter38BEL2:23:194:47 12.5626h35BIERBEEKT?l?chargez votre diplome!
134.222HEIJMAN Rob55NLD2:23:194:47 12.5610h55BUGGENUMT?l?chargez votre diplome!
135.570TONUCCI Laurent35BEL2:23:234:47 12.5527h35HOUTAIN-SAINT-SIMÉONT?l?chargez votre diplome!
136.89DERKS Ivo39NLD2:23:494:48 12.5228h35MALDENT?l?chargez votre diplome!
137.409JAN Brouwers57NLD2:24:274:49 12.4611h55BRUNSSUMT?l?chargez votre diplome!
138.505CRAHAY Cédric42BEL2:24:424:50 12.4429h40SPRIMONTT?l?chargez votre diplome!
139.617JAMAR Cedric32BEL2:24:444:50 12.4426senT?l?chargez votre diplome!
140.26SERFASS Pierre52FRAHAGER2:24:484:50 12.4319h50NIEDERSOULTZBACHT?l?chargez votre diplome!
141.388BAILLIEN Kristof36BEL2:24:494:50 12.4329h35BORGLOONT?l?chargez votre diplome!
142.430FOULON Olivier44FRA2:25:524:52 12.3430h40HÉRINT?l?chargez votre diplome!
143.563NOPERE Stephane54BEL2:25:564:52 12.3420h50BOUTERSEMT?l?chargez votre diplome!
144.594KLASENS Frank53NLD2:25:584:52 12.3321h50T?l?chargez votre diplome!
145.153FREMMERIE Mieke48BELMIEKE REMMERIE2:26:134:53 12.311f45HOOGLEDET?l?chargez votre diplome!
146.271FVERMEULEN Melanie42NLDACHILLESTOP2:26:184:53 12.301f40LANDGRAAFT?l?chargez votre diplome!
147.281FFLORIE Sandra43NLDACHILLES-TOP KE2:26:184:53 12.302f40KERKRADET?l?chargez votre diplome!
148.203FEPEMA Uti31NLD2:26:364:54 12.281damGRONINGENT?l?chargez votre diplome!
149.468QUADFLIEG Marc61BELMACD2:26:384:54 12.285h60MAASMECHELENT?l?chargez votre diplome!
150.512COLARD Andrew40BELWORLDLINE2:26:484:54 12.2631h40LIÈGET?l?chargez votre diplome!
151.434DURIEUX Rodolphe42BELCHC2:26:504:54 12.2632h40BEAUFAYST?l?chargez votre diplome!
152.137CONINX Carl30BEL2:27:064:55 12.2427senWESTMALLET?l?chargez votre diplome!
153.243WILT Michael40USA2:27:154:55 12.2333h40AUSTINT?l?chargez votre diplome!
154.554URBANI Jean Marc50BELSER ATHL2:27:174:55 12.2222h50OUGRÉET?l?chargez votre diplome!
155.80NICOLAÏ Robert56BEL2:27:174:55 12.2212h55MONST?l?chargez votre diplome!
156.65HARDY Geoffrey45BEL2:27:174:55 12.2222h45OUPEYET?l?chargez votre diplome!
157.254GUILMAIN Jérôme41BEL2:27:344:56 12.2034h40ANTHEITT?l?chargez votre diplome!
158.163FBURRICHTER Brenda34NLD2:27:354:56 12.202damMAASTRICHTT?l?chargez votre diplome!
159.319BOURGEOIS Stéphane48BELFORMYFIT2:27:354:56 12.2023h45PIÉTONT?l?chargez votre diplome!
160.246HAUMONT Raphael39BEL2:27:354:56 12.2030h35FORVILLET?l?chargez votre diplome!
161.61CHAUVIN Nicolas41BEL2:27:364:56 12.2035h40VINALMONTT?l?chargez votre diplome!
162.583AERTS Johan49BELKC-TEAM2:27:374:56 12.1924h45LAAKDALT?l?chargez votre diplome!
163.185GIACOMO Cugnini45ITA2:27:574:56 12.1725h45BRUXELLEST?l?chargez votre diplome!
164.518FCALAPRISTI Christine51ITACERCLE OMNISPOR2:28:064:57 12.151f50HEER AGIMONTT?l?chargez votre diplome!
165.543JOLIS Martin20BEL2:28:074:57 12.1528senLOUVEIGNÉT?l?chargez votre diplome!
166.64PETIT Fredric49NLD2:28:114:57 12.1526h45MAASTRICHTT?l?chargez votre diplome!
167.455LEINERS Luc28BELCHC2:28:134:57 12.1529senVOROUX-LEZ-LIERST?l?chargez votre diplome!
168.601HORIONS Wout19BEL2:28:134:57 12.1430senT?l?chargez votre diplome!
169.372JOSSE Rémi34BEL2:28:144:57 12.1431senFOURONST?l?chargez votre diplome!
170.63ALBERS Frédéric52BEL2:28:144:57 12.1423h50EGHEZÉET?l?chargez votre diplome!
171.22GREENSHIELDS Martin51GBR2:28:154:57 12.1424h50EIJSDENT?l?chargez votre diplome!
172.359VRANCKX Robin19BEL2:28:154:57 12.1432senWESTERLOT?l?chargez votre diplome!
173.499WUIDARD Jean-Luc56BEL2:28:154:57 12.1413h55ALLEURT?l?chargez votre diplome!
174.542MARIS Geert47BEL2:28:194:57 12.1427h45ZONHOVENT?l?chargez votre diplome!
175.266SCHUTZ Renaud45BEL2:28:224:57 12.1328h45AWIRST?l?chargez votre diplome!
176.572HOGGE Farncois31BEL2:28:284:57 12.1233senT?l?chargez votre diplome!
177.223MATHEÏ Bart42BEL2:28:354:58 12.1236h40KORTENBERGT?l?chargez votre diplome!
178.523DENIS Sylvain29BELKNAUF2:28:404:58 12.1134senANDENNET?l?chargez votre diplome!
179.313EVERAERT Mathias29BEL2:28:504:58 12.1035senIDEGEMT?l?chargez votre diplome!
180.221FAYS Sebastien39BEL2:28:524:58 12.0931h35ANST?l?chargez votre diplome!
181.629LISMONDE Dimitri23BEL2:28:544:58 12.0936senLIÈGET?l?chargez votre diplome!
182.11GARSOU Cédric40BEL2:28:544:58 12.0937h40VISÉT?l?chargez votre diplome!
183.361SMEETS Joel50BEL2:28:554:58 12.0925h50STEMBERTT?l?chargez votre diplome!
184.576SANGIOVANNI Cyril25BEL2:28:554:58 12.0937senLIERST?l?chargez votre diplome!
185.267FTHILL Anne-Catherine33BEL2:28:554:58 12.093damBASTOGNET?l?chargez votre diplome!
186.352FAGOT Laurent26BELRCAE MISE EN CO2:28:554:58 12.0938senLIEGET?l?chargez votre diplome!
187.145FLEGRAND Francine48BELSKYRUNNER TEAM2:28:554:58 12.092f45LEUZET?l?chargez votre diplome!
188.177VERVLOET Guido55BELAVZK2:28:554:58 12.0914h55HEIST-OP-DEN-BERGT?l?chargez votre diplome!
189.350BUYDENS Guillaume25BELMCP2:28:554:58 12.0939senNEUPRÉT?l?chargez votre diplome!
190.519CERVI Eric53BELJOG'IN ATTITUDE2:28:564:58 12.0926h50BEYNE-HEUSAYT?l?chargez votre diplome!
191.150PAESEN Rik52BEL2:28:564:58 12.0927h50AST?l?chargez votre diplome!
192.219WEERTS Ben35BEL2:28:564:58 12.0932h35REKEMT?l?chargez votre diplome!
193.411VRANKEN Harald49NLD2:28:574:58 12.0929h45WEERTT?l?chargez votre diplome!
194.305JULLIEN Dominique57FRA2:28:574:58 12.0915h55AMIENST?l?chargez votre diplome!
195.133ARMSTRONG Tom58GBR2:28:574:58 12.0816h55LONDONT?l?chargez votre diplome!
196.608VAES Kevin29BEL2:28:574:58 12.0840senFOURONT?l?chargez votre diplome!
197.374DALLE Frédéric39BEL2:28:574:58 12.0833h35AUDERGHEMT?l?chargez votre diplome!
198.491FKERREMANS Sonja49BEL2:28:584:58 12.083f45BURCHTT?l?chargez votre diplome!
199.490THOEN Luc51BEL2:28:584:58 12.0828h50BURCHTT?l?chargez votre diplome!
200.173DEWULF Koenraad53BEL2:28:584:58 12.0829h50TORHOUTT?l?chargez votre diplome!
201.369KLEIJ Henk56NLD2:29:094:59 12.0717h55ROTTERDAMT?l?chargez votre diplome!
202.464BRANDSMA Willy52NLD2:29:234:59 12.0530h50WITTEMT?l?chargez votre diplome!
203.422DRESCHER Patrick41NLD2:29:244:59 12.0538h40EIJSDENT?l?chargez votre diplome!
204.289SCOTT Mark53BEL2:29:315:00 12.0431h50APPELTERRET?l?chargez votre diplome!
205.287VROEMEN Rene58NLD2:29:335:00 12.0418h55MAASTRICHTT?l?chargez votre diplome!
206.368MARIJN TULP Marijn36NLD2:29:355:00 12.0334h35SITTARDT?l?chargez votre diplome!
207.571HEINS Luc60BEL2:29:405:00 12.036h60BLEGNYT?l?chargez votre diplome!
208.517FSABLONE Oriana58BEL2:29:415:00 12.031f55AYWAILLET?l?chargez votre diplome!
209.290DECONINCK Jérôme35BEL2:29:455:00 12.0235h35WASMES A-BT?l?chargez votre diplome!
210.227BEDLEEM Jerome47FRA2:29:525:00 12.0130h45PARIST?l?chargez votre diplome!
211.354WAUTERS Thomas28BEL2:29:555:00 12.0141senFIZE-LE-MARSALT?l?chargez votre diplome!
212.149PACE Carmine60ITAMONTEDORO NOCI2:29:565:00 12.017h60NOCIT?l?chargez votre diplome!
213.466VOS Bart45BEL2:29:595:00 12.0031h45GEELT?l?chargez votre diplome!
214.630MCKEEVER John49BEL2:30:195:01 11.9832h45T?l?chargez votre diplome!
215.334FLAWARREE Lola26BEL2:30:215:01 11.974damLIERNEUXT?l?chargez votre diplome!
216.547JAMMAERS Anthony18BEL2:30:225:01 11.9742senALKENT?l?chargez votre diplome!
217.306PIOT Hervé30BELPIOT2:30:355:02 11.9543senVISÉT?l?chargez votre diplome!
218.367CREMERS Stijn32BEL2:30:445:02 11.9444senBILZENT?l?chargez votre diplome!
219.51MESOTTEN Dirk48BEL2:30:495:02 11.9433h45HASSELTT?l?chargez votre diplome!
220.550GREK Vincent54BELCABW-NAC2:30:505:02 11.9332h50NIVELLEST?l?chargez votre diplome!
221.444MENTEN Joren25BELRUN TMC2:31:025:03 11.9245senBORGLOONT?l?chargez votre diplome!
222.549FJOHNSON Mirja42FIN2:31:035:03 11.923f40RIXENSARTT?l?chargez votre diplome!
223.384BELLEFROID Jean-Charles19BEL2:31:275:03 11.8946senLIERST?l?chargez votre diplome!
224.609FFRENKEN Sandra45NLD2:31:305:03 11.884f45T?l?chargez votre diplome!
225.299KINALI Arif33BEL2:31:315:04 11.8847senMEISET?l?chargez votre diplome!
226.45LEMAIRE Cédric Maël34BEL2:31:385:04 11.8748senBATTICET?l?chargez votre diplome!
227.416GIGLIO Gaspare53BELRFCL LIÈGE2:31:385:04 11.8733h50LONCINT?l?chargez votre diplome!
228.190DE RUYTER Roger47NLD2:31:425:04 11.8734h45MAASTRICHTT?l?chargez votre diplome!
229.224OLIVIER Arnaud51FRA2:31:475:04 11.8634h50LILLET?l?chargez votre diplome!
230.157FVISSER Gerry55NLDLAAC TWENTE2:31:495:04 11.862f55BORNET?l?chargez votre diplome!
231.307STOFFELS Bart41NLD2:31:515:04 11.8539h40BERGEN OP ZOOMT?l?chargez votre diplome!
232.72LAMBRIKS Robbert46NLD2:31:525:04 11.8535h45MAASTRICHTT?l?chargez votre diplome!
233.473SEYNAEVE Laurent47BEL2:31:575:04 11.8536h45ANST?l?chargez votre diplome!
234.551SCHEPKENS Ijves45BELRUN & FUN GENK2:32:015:05 11.8437h45AST?l?chargez votre diplome!
235.447JAMIN Dominique35BELJOG IN ATTITUDE2:32:025:05 11.8436h35LIÈGET?l?chargez votre diplome!
236.537BODSON Julien33BEL2:32:045:05 11.8449senALLEURT?l?chargez votre diplome!
237.253FGEMMINK Anne29NLD2:32:075:05 11.835damMAASTRICHTT?l?chargez votre diplome!
238.337LE BOULENGE Anthony34BEL2:32:165:05 11.8250senVISET?l?chargez votre diplome!
239.69VERBRUGGEN Xavier55BEL2:32:275:05 11.8119h55ZULTET?l?chargez votre diplome!
240.404VANHUYSE Pedro37BEL2:32:295:05 11.8137h35RUMBEKET?l?chargez votre diplome!
241.561SCHRAEPEN David41BEL2:32:295:05 11.8040h40ZONHOVENT?l?chargez votre diplome!
242.127SLABBINCK Joris59BEL2:32:305:05 11.8020h55OOSTKAMPT?l?chargez votre diplome!
243.245DE KIMPE Xavier42BEL2:32:345:06 11.8041h40ALSEMBERGT?l?chargez votre diplome!
244.123OMAZIC Pierre44BEL2:32:415:06 11.7942h40SAINT NICOLAST?l?chargez votre diplome!
245.189MILO Sven50BEL2:32:475:06 11.7835h50GERAARDSBERGENT?l?chargez votre diplome!
246.497DEHON Arnaud28BEL2:32:585:06 11.7751senBATTICET?l?chargez votre diplome!
247.530DEGUELDRE Michael24BEL2:32:585:06 11.7752senHOMBOURGT?l?chargez votre diplome!
248.164FVOGELS Joke36BEL2:32:595:06 11.772f35HEUSDEN-ZOLDERT?l?chargez votre diplome!
249.208JANSSEN Jimmy33BEL2:32:595:06 11.7753senMAASMECHELENT?l?chargez votre diplome!
250.136COLA Emmanuel44BEL2:32:595:06 11.7743h40SERAINGT?l?chargez votre diplome!
251.139DE PRIL Filip36BELBEERSELSE JOGGE2:33:015:07 11.7638h35ALSEMBERGT?l?chargez votre diplome!
252.62LOVELOCK David47GBR2:33:185:07 11.7438h45LONDONT?l?chargez votre diplome!
253.274FBROUWERS Rani21BEL2:33:245:07 11.736damPEERT?l?chargez votre diplome!
254.615BIESMANS Patrick49BEL2:33:545:08 11.7039h45MAASMECHELENT?l?chargez votre diplome!
255.613POSSEN Gert-Jan31BEL2:33:555:08 11.7054senT?l?chargez votre diplome!
256.586WAUTHIER Gaetan41BEL2:33:555:08 11.6944h40THUINT?l?chargez votre diplome!
257.598BEAUJEAN Erik49BEL2:34:005:08 11.6940h45ST- TRUIDENT?l?chargez votre diplome!
258.381DUFOUR René59BELJOGGIN'ATTITUDE2:34:005:08 11.6921h55LIEGET?l?chargez votre diplome!
259.213WATAR Francis44BELBC RETINNE2:34:305:09 11.6545h40RETINNET?l?chargez votre diplome!
260.103JANS Stijn39BEL2:34:455:10 11.6339h35SINT TRUIDENT?l?chargez votre diplome!
261.124PLEVOETS Stef39BEL2:34:455:10 11.6340h35SINT-TRUIDENT?l?chargez votre diplome!
262.344MERCIER Didier43FRA2:34:475:10 11.6346h40PARIST?l?chargez votre diplome!
263.402GROSS-ALT Werner62DEUDJK RASENSPORT 2:35:015:11 11.618h60AACHENT?l?chargez votre diplome!
264.621FVERVAEKE Els45BEL2:35:285:11 11.585f45PULLET?l?chargez votre diplome!
265.566FMEUNIER Maryline33BELMEUNIER2:35:335:12 11.577damBRAINE LE COMTET?l?chargez votre diplome!
266.565NIZET Laurent41BEL2:35:345:12 11.5747h40BRAINE LE COMTET?l?chargez votre diplome!
267.419CANEVE Christophe35BELJIA2:35:355:12 11.5741h35FLERONT?l?chargez votre diplome!
268.599HENNEAUX Daniel47BEL2:36:155:13 11.5241h45HATRIVALT?l?chargez votre diplome!
269.482LACASSE Jean51BEL2:36:155:13 11.5236h50HANNUTT?l?chargez votre diplome!
270.531SEMPELS Joeri36BEL2:36:295:13 11.5042h35NIJLENT?l?chargez votre diplome!
271.417LEIJNEN Sven43BEL2:36:335:14 11.5048h40MELDERTT?l?chargez votre diplome!
272.348SANFACON Jean-Yves55CAN2:36:515:14 11.4822h55QUEBECT?l?chargez votre diplome!
273.235PAUMEN Laurent27BEL2:36:525:14 11.4755senMAASEIKT?l?chargez votre diplome!
274.605VAN OERS Marco49BEL2:37:015:15 11.4642h45VILVOORDET?l?chargez votre diplome!
275.96SIMAL Anthony42BELTEAM PRIVILÈGE 2:37:135:15 11.4549h40NOISEUXT?l?chargez votre diplome!
276.233MERCKEN Geert47BEL2:37:155:15 11.4543h45BORGLOONT?l?chargez votre diplome!
277.480PEETERS Gustaaf53BELOEVERLOPERS2:37:185:15 11.4437h50TESTELTT?l?chargez votre diplome!
278.283DECOCK Maarten35BEL2:37:275:15 11.4343h35GENTBRUGGET?l?chargez votre diplome!
279.392VANDERBEUKEN Joris35BELRUN TMC2:37:285:15 11.4344h353700T?l?chargez votre diplome!
280.484POULUSSEN Erwin53BELACKO2:37:295:15 11.4338h50ERPS-KWERPST?l?chargez votre diplome!
281.597HAAN John60NLD2:37:345:16 11.429h60LANDGRAAFT?l?chargez votre diplome!
282.97DENIS Vincent46BELTEAM PRIVILÈGE 2:37:375:16 11.4244h45MARCHE-EN-FAMENNET?l?chargez votre diplome!
283.296MAURIZIO Pignotti50ITA2:37:425:16 11.4139h50ROMAT?l?chargez votre diplome!
284.91LAMBERT Lionel40BEL2:37:455:16 11.4150h40VISÉT?l?chargez votre diplome!
285.276FGAMME Doriane32BELTHEODOTEMPO2:37:495:16 11.418damSOIGNIEST?l?chargez votre diplome!
286.539LEFEBVRE Paulin37BELTHEODO TEMPO2:37:505:16 11.4145h35SAINT-DENIST?l?chargez votre diplome!
287.589VANHAECHT Bert42BEL2:37:505:16 11.4151h40T?l?chargez votre diplome!
288.435VANHAECHT Stef30BEL2:37:505:16 11.4156senWINKSELET?l?chargez votre diplome!
289.212ROCA Ibán42ESP2:37:515:16 11.4052h40BRUXELLEST?l?chargez votre diplome!
290.568BREUER Bertrand47BEL2:38:045:17 11.3945h45PETIT-RECHAINT?l?chargez votre diplome!
291.236ROTTIERS Walter64BEL2:38:045:17 11.3910h60DEURNET?l?chargez votre diplome!
292.343BRAGARD Jean-Michel54BEL2:38:075:17 11.3840h50ANDRIMONTT?l?chargez votre diplome!
293.342LEFEVRE Gert48BEL2:38:105:17 11.3846h45SINT-LIEVENS-HOUTEMT?l?chargez votre diplome!
294.511ULRICI Olivier31BELCHC2:38:185:17 11.3757senAUT?l?chargez votre diplome!
295.510ULRICI Michel34BELCHC2:38:185:17 11.3758senVISET?l?chargez votre diplome!
296.174FICHET Laurent45BELJACO2:38:365:18 11.3547h45BAILEUXT?l?chargez votre diplome!
297.108VAN DER MEULEN Nathal52NLDACHILLES TOP KE2:38:565:18 11.3341h50MECHELENT?l?chargez votre diplome!
298.184FDIRIX Dora57BELDCLA - OEVERLOP2:39:085:19 11.313f55DONKT?l?chargez votre diplome!
299.259MENGONI Luigi46ITAOLIMPIA MARZOCC2:39:135:19 11.3148h45VIVEGNIST?l?chargez votre diplome!
300.408PIERRET Claude49BEL2:39:145:19 11.3049h45ATHUST?l?chargez votre diplome!
301.261OLIVIER Bravin33BEL2:39:235:19 11.2959senEREZEET?l?chargez votre diplome!
302.485OTTEN Yannic38BEL2:39:275:19 11.2946h35OUPEYET?l?chargez votre diplome!
303.17VAN DE VELDE Kurt49BEL2:39:295:19 11.2950h45LOVENDEGEMT?l?chargez votre diplome!
304.582FVAN BOVEN Christel53BEL2:39:305:19 11.292f50SINT-NIKLAAST?l?chargez votre diplome!
305.389WYNS Wim47BEL2:39:305:19 11.2951h45MEISET?l?chargez votre diplome!
306.377FDUYCK Anja50BEL2:39:305:19 11.293f50MEISET?l?chargez votre diplome!
307.240VAN KUPPEVELD Ewald57NLD2:39:315:20 11.2923h55GRONINGENT?l?chargez votre diplome!
308.13VANDEWIELE Bart40BEL2:39:315:20 11.2853h40DRONGENT?l?chargez votre diplome!
309.204FRANSSEN Jean-Francois47BEL2:39:315:20 11.2852h45AUBELT?l?chargez votre diplome!
310.269VAN LAER Joost28BEL2:39:315:20 11.2860senSCHERPENHEUVEL-ZICHEMT?l?chargez votre diplome!
311.293VAN BELLEGHEM Bart50BEL2:39:325:20 11.2842h50DE PINTET?l?chargez votre diplome!
312.311VAN QUEKELBERGHE Peter42BELETENGHIEN2:39:325:20 11.2854h40HERNET?l?chargez votre diplome!
313.314BEX Jo38BEL2:39:335:20 11.2847h35HERK-DE-STADT?l?chargez votre diplome!
314.182VAN BAELEN Michiel39BELMICHIEL VAN BAE2:39:335:20 11.2848h35HERK-DE-STADT?l?chargez votre diplome!
315.580ROBA Alexandre51BEL2:39:345:20 11.2843h50WATERLOOT?l?chargez votre diplome!
316.477DE WANDEL Chris44BEL2:39:345:20 11.2855h40SINT-LIEVENS-HOUTEMT?l?chargez votre diplome!
317.502FVAN GINDERACHTER Nele37BEL2:39:355:20 11.283f35ERPE-MERET?l?chargez votre diplome!
318.200DELHEZ Jean-Francois37BEL2:39:435:20 11.2749h35THIMISTER-CLERMONTT?l?chargez votre diplome!
319.385STEENHAUT Hans54BELTRIATH2:40:255:21 11.2244h50ELLEZELLEST?l?chargez votre diplome!
320.603SCHOLZ Karl62BEL2:40:315:22 11.2111h60ALKENT?l?chargez votre diplome!
321.413MEUS Tim28BEL2:40:425:22 11.2061senHOUTHALENT?l?chargez votre diplome!
322.375SMETS Stany55BEL2:41:035:23 11.1824h55ZEPPERENT?l?chargez votre diplome!
323.418DE BRABANDER Mark48BEL2:41:035:23 11.1853h45WELLENT?l?chargez votre diplome!
324.439GUCKEL Arnaud26BELTCBM2:41:045:23 11.1862senLIÈGET?l?chargez votre diplome!
325.154SCHOLLAERT Geoffrey41BEL2:41:055:23 11.1856h40FORESTT?l?chargez votre diplome!
326.155VANCAUWENBERGHS Guy55BEL2:41:115:23 11.1725h55BEERZEL BELGIËT?l?chargez votre diplome!
327.186VELARDO Fabio50ITA2:41:275:23 11.1545h50WEZEMBEEK - OPPEMT?l?chargez votre diplome!
328.77PARTOUNS Philippe37BEL2:41:495:24 11.1250h35LIXHET?l?chargez votre diplome!
329.424SZYMON Rutkowski43POL2:42:115:25 11.1057h40AUDERGHEMT?l?chargez votre diplome!
330.579STEFANO Gianni40BEL2:42:485:26 11.0658h40RIEMSTT?l?chargez votre diplome!
331.535VANAKEN Patrick57BELGEMSJOGGERS DIE2:42:535:26 11.0526h55DIEPENBEEKT?l?chargez votre diplome!
332.280QUINTELIER David46BELKREKENLOPERS2:43:215:27 11.0254h45RUISELEDET?l?chargez votre diplome!
333.197BAEL Danny55BEL2:43:245:27 11.0227h55NINOVE-VOORDET?l?chargez votre diplome!
334.494KRAUSE Karsten46DEURUNNING TEAM GR2:43:485:28 10.9955h45DUSSELDORFT?l?chargez votre diplome!
335.301VISKENS Jasper30BEL2:43:565:28 10.9863senBOOISCHOTT?l?chargez votre diplome!
336.486LOGIST Bart30BEL2:43:565:28 10.9864senLEUVENT?l?chargez votre diplome!
337.183HERMANS Christian38NLD2:43:575:28 10.9851h35MAASTRICHTT?l?chargez votre diplome!
338.525SCHIDLO Eric39BELKNAUF2:44:045:29 10.9752h35VISÉT?l?chargez votre diplome!
339.167KNOCKAERT Pascal46BELJCPMF RAMILLIES2:44:095:29 10.9756h45RAMILLIEST?l?chargez votre diplome!
340.396LIENNE Ralph58BELNEXT ONE2:44:115:29 10.9628h55EUPENT?l?chargez votre diplome!
341.538VANHOOVELS Marc60BEL2:44:325:30 10.9412h60SPRENDLINGENT?l?chargez votre diplome!
342.504FLARCHER DE BRITO M Virginia62PRT2:45:315:32 10.881f60KRAAINEMT?l?chargez votre diplome!
343.370BERGHMANS Jean-Claude52BEL2:45:325:32 10.8746h50ANDERLECHTT?l?chargez votre diplome!
344.93MARTIN Frédéric33BEL2:45:485:32 10.8665senLA LOUVIÈRET?l?chargez votre diplome!
345.328VAN GRONINGEN Gertjan54NLD2:46:015:33 10.8447h50COTHENT?l?chargez votre diplome!
346.179BONTINCKX Frankie58BELAC DENDERLAND2:46:025:33 10.8429h55DENDERMONDET?l?chargez votre diplome!
347.453MARQUEGNIES Valentin22BEL2:47:135:35 10.7666senLESSINEST?l?chargez votre diplome!
348.515KOLP Christian64BELETENGHIEN2:47:155:35 10.7613h60BRAINE-LE-COMTET?l?chargez votre diplome!
349.360FORAMITTI Laurent45BEL2:47:195:35 10.7657h45ROCOURTT?l?chargez votre diplome!
350.514FKOLP Virginie37BELETENGHIEN2:47:205:35 10.764f35BRAINE-LE-COMTET?l?chargez votre diplome!
351.168WINNEN Paul63BEL2:47:205:35 10.7614h60VELTEM-BEISEMT?l?chargez votre diplome!
352.622DETRIXHE Christophe42BELWAC2:47:245:35 10.7559h40WAREMMET?l?chargez votre diplome!
353.338MERCHIN David38FRACAF FORESTOISE2:47:575:36 10.7253h35BELGIQUET?l?chargez votre diplome!
354.399GERTRUDA Julien28BEL2:48:045:37 10.7167senVISÉT?l?chargez votre diplome!
355.98RAUTENHAUS Mark45DEUKA-RO ELECTRONI2:48:145:37 10.7058h45ROETGENT?l?chargez votre diplome!
356.118DECOSTER Gerrit47BEL2:48:145:37 10.7059h45ROTSELAART?l?chargez votre diplome!
357.151PARISSE Christian48BEL2:48:155:37 10.7060h45SAINT-GEORGEST?l?chargez votre diplome!
358.146MANSVELDERS Wilco50NLD2:48:425:38 10.6748h50HELMONDT?l?chargez votre diplome!
359.112DESNYDER Henk44BEL2:48:535:38 10.6660h40WILSELET?l?chargez votre diplome!
360.111FVANDE VOORDE Anneke35BEL2:48:535:38 10.665f35WILSELET?l?chargez votre diplome!
361.303KHRONIS Manuel53BELMARATHON POUR L2:49:105:39 10.6449h50OLNET?l?chargez votre diplome!
362.206HECKER Robert54NLDATLETIEK MAASTR2:49:145:39 10.6450h50MAASTRICHTT?l?chargez votre diplome!
363.92FVERBERT Greet41BEL2:49:235:39 10.634f40BRASSCHAATT?l?chargez votre diplome!
364.247FPURNODE Stéphanie35BEL2:49:275:39 10.626f35GOUY-LEZ-PIETONT?l?chargez votre diplome!
365.347ROELEVELD Wilbert63NLD2:49:505:40 10.6015h60WIJK BIJ DUURSTEDET?l?chargez votre diplome!
366.12LEGROS Francis49BEL2:49:515:40 10.6061h45SOUMAGNET?l?chargez votre diplome!
367.492TITS Samuel38BEL2:49:515:40 10.6054h35OUPEYET?l?chargez votre diplome!
368.386NELHIEBEL Gyula54BEL2:49:525:40 10.6051h50PETIT-RECHAINT?l?chargez votre diplome!
369.577NIESTE Andre58NLD2:49:525:40 10.6030h55LANAKENT?l?chargez votre diplome!
370.239THERERE Jeanphilippe43BEL2:49:525:40 10.6061h40MARCHE-EN-FAMENNET?l?chargez votre diplome!
371.71DE FROIDMONT Patrick44BELBERNEAU JOGGING2:49:535:40 10.6062h40BERNEAUT?l?chargez votre diplome!
372.383FGREVENDONK Lotte27BEL2:50:115:41 10.589damMAASTRICHTT?l?chargez votre diplome!
373.441BOVIN Patrick51BEL2:50:225:41 10.5752h50SINT-TRUIDENT?l?chargez votre diplome!
374.614WINKEL Bart49BELATLA2:50:235:41 10.5762h45MAASMECHELENT?l?chargez votre diplome!
375.353LUQUE Christian51BELFACERUNNING2:50:275:41 10.5653h50PONT DE LOUPT?l?chargez votre diplome!
376.602FBRUZZESE Nathalie40BEL2:51:125:43 10.515f40T?l?chargez votre diplome!
377.557FDURDURE Angélique43BELZATOPEK2:51:165:43 10.516f40HACCOURTT?l?chargez votre diplome!
378.379FBEERTEN Petra43BEL2:52:045:45 10.467f40HASSELTT?l?chargez votre diplome!
379.393FGOETTSCH Dieuwertje28NLD2:52:125:45 10.4510damAMSTERDAMT?l?chargez votre diplome!
380.285MORANA Eduardo50ITASERAING ATH2:52:185:45 10.4554h50SAINT NICOLAST?l?chargez votre diplome!
381.574FLAMBERT Chantal45NLD2:52:375:46 10.436f45AV EIJSDENT?l?chargez votre diplome!
382.320FGOYVAERTS Annemie51BEL2:52:395:46 10.434f50GELRODET?l?chargez votre diplome!
383.228CATALE Dante46BEL2:52:595:46 10.4163h45MAGNÉET?l?chargez votre diplome!
384.501LHOEST Nicolas31BELMAGPIE HUY2:53:055:47 10.4068senAMAYT?l?chargez votre diplome!
385.545HAQUIN Pierre-Alexandre42BEL2:53:315:48 10.3763h40ROSSIGNOLT?l?chargez votre diplome!
386.87MATTHYSSEN Julien65BELAC BRAEK2:53:535:48 10.352h65BRASSCHAATT?l?chargez votre diplome!
387.156VANDEN BOSSCHE Nicolas23BEL2:53:545:48 10.3569senWEMMELT?l?chargez votre diplome!
388.322FDERAEVE Annick46BEL2:53:555:48 10.357f45ZWIJNAARDET?l?chargez votre diplome!
389.407NICAISE Rémy31BEL2:54:085:49 10.3470senGRIVEGNÉET?l?chargez votre diplome!
390.555BECKERS Alexandre24BEL2:54:175:49 10.3371senSAINT REMYT?l?chargez votre diplome!
391.130PIRE Raphael46BEL2:54:215:49 10.3264h45LIXHET?l?chargez votre diplome!
392.105FOLSSON Solveig62SWETEAM BLEKINGE2:54:365:50 10.312f60KARLSKRONAT?l?chargez votre diplome!
393.351CLOVIN Daniël51BELMMC2:54:445:50 10.3055h50LAARNET?l?chargez votre diplome!
394.423BEMONG Marc70BELKNOET2:54:475:50 10.301h70HOUWAARTT?l?chargez votre diplome!
395.292SMETS Loïc38BEL2:55:015:51 10.2955h35KURINGENT?l?chargez votre diplome!
396.82FAUCON Patrick56FRA2:55:055:51 10.2831h55AACHENT?l?chargez votre diplome!
397.625CIARNIELLO Fabrice42BEL2:55:065:51 10.2864h40BEYNE-HEUSAYT?l?chargez votre diplome!
398.214BOCHENKOV Yury35RUS2:55:125:51 10.2756h35IXELLEST?l?chargez votre diplome!
399.169FWINTERS Kristine42BELJOGGING CLUB RU2:55:235:51 10.268f40NIEL-BIJ-AST?l?chargez votre diplome!
400.244FCOLSON Delphine40BEL2:55:265:51 10.269f40BARVAUX CONDROZT?l?chargez votre diplome!
401.532MUSONI MURASA Jean37BEL2:55:315:52 10.2657h35BRUXELLEST?l?chargez votre diplome!
402.161DE LEE Johan49BEL2:55:325:52 10.2565h45ZWIJNDRECHTT?l?chargez votre diplome!
403.279FCOLLARD Sophie40BEL2:55:385:52 10.2510f40BANDET?l?chargez votre diplome!
404.304FDETHIER Chantal45BEL2:55:385:52 10.258f45MEANT?l?chargez votre diplome!
405.463OLIVIER Jean-Christophe41BELASPIRUN2:55:415:52 10.2565h40MORTIERT?l?chargez votre diplome!
406.606FBOONEN Elke31BEL2:55:525:52 10.2411damT?l?chargez votre diplome!
407.604FELIA Laura28BEL2:55:535:52 10.2412damT?l?chargez votre diplome!
408.237FRUTZ Saskia40CHE2:55:545:52 10.2311f40HOSENRUCKT?l?chargez votre diplome!
409.546BURGELMAN Filip51BEL2:56:215:53 10.2156h50KOEKELBERGT?l?chargez votre diplome!
410.166FCORSTENS Rietje70NLD2:56:225:53 10.211f70BERGEN OP ZOOMT?l?chargez votre diplome!
411.481LEFORT Laurent49FRA2:56:285:53 10.2066h45MAASTRICHTT?l?chargez votre diplome!
412.210FNOLMANS Goele30BEL2:56:325:54 10.2013damBILZENT?l?chargez votre diplome!
413.516LAUVERGNE Vincent42FRATRIATHLON CLUB 2:56:455:54 10.1866h40DIJONT?l?chargez votre diplome!
414.217KRISCHER Stefan38DEU2:56:525:54 10.1858h35LANGERWEHET?l?chargez votre diplome!
415.229FGEUENICH Stefanie37DEULT SCHLEICH2:56:545:54 10.187f35LANGERWEHET?l?chargez votre diplome!
416.234FOSTERHOLT Daniela36DEULT SCHLEICH2:56:545:54 10.188f35LANGERWEHET?l?chargez votre diplome!
417.467DOELEMAN Davy39NLD2:57:015:55 10.1759h35BASSENGET?l?chargez votre diplome!
418.333FGIANGIORDANO Anne48BELHACCOURT SANTÉE2:57:105:55 10.169f45HEURE-LE-ROMAINT?l?chargez votre diplome!
419.470FWALSTOCK-MULDERS Nicole40NLD2:57:185:55 10.1512f40LANAKENT?l?chargez votre diplome!
420.493SCHIJNS Tom32BEL2:57:255:55 10.1572senHEVERLEET?l?chargez votre diplome!
421.395FANCION Valerie41BEL2:57:295:55 10.1413f40AUBELT?l?chargez votre diplome!
422.268VAN DER VELDE Arjan48NLDHARDLOPEN.NL2:57:445:56 10.1367h45NIEUW-BEIJERLANDT?l?chargez votre diplome!
423.205FHARBECK Rebecca22USA2:57:475:56 10.1214damSKOKIET?l?chargez votre diplome!
424.308FLAGOTHIER Pierre37BEL2:57:575:56 10.1260h35TILFFT?l?chargez votre diplome!
425.142FLORAM Gianni46BEL2:58:105:57 10.1068h45FLÉMALLET?l?chargez votre diplome!
426.591LYNEN Dirk55BEL2:58:185:57 10.1032h55T?l?chargez votre diplome!
427.569PERIOT Laurent56FRAHDMAC2:58:375:58 10.0833h55DOURDANT?l?chargez votre diplome!
428.159GERADON Jean-François44BELFLEMALLE ATHLET2:59:005:58 10.0667h40FLEMALLET?l?chargez votre diplome!
429.181FFUCHS Lisa30DEU2:59:065:59 10.0515damEYNATTENT?l?chargez votre diplome!
430.496SCHROEDER Hans-Willi62DEU2:59:165:59 10.0416h60JUELICHT?l?chargez votre diplome!
431.610FBLONTROCK Louise28BEL2:59:185:59 10.0416damGENTT?l?chargez votre diplome!
432.376WINTGENS Marc58BEL2:59:406:00 10.0234h55STEMBERTT?l?chargez votre diplome!
433.456FLOCHT Audrey24BELCHC2:59:436:00 10.0217damVISÉT?l?chargez votre diplome!
434.252FDUPONT Isabelle44BELISABELLE DUPONT2:59:456:00 10.0114f40BANDE - NASSOGNET?l?chargez votre diplome!
435.24HASTIR Olivier42BEL2:59:506:00 10.0168h40MOHIVILLET?l?chargez votre diplome!
436.398FABRY Gaetan29BEL2:59:596:00 10.0073senWANFERCEE-BAULETT?l?chargez votre diplome!
437.400SIPERS Henk63NLDRON FOR RUN MAA3:00:246:01 9.9817h60MAASTRICHTT?l?chargez votre diplome!
438.298KHATAVKAR Vinayak43NLD3:00:266:01 9.9869h40MAASTRICHTT?l?chargez votre diplome!
439.318TEJ PAL Singh30INDJUST RUNNERS3:00:306:01 9.9774senEVERET?l?chargez votre diplome!
440.109DELMOTTE Yves65BEL3:00:486:02 9.963h65CHÂTELETT?l?chargez votre diplome!
441.147MARIVOET Tom41BEL3:00:556:02 9.9570h40ERPS-KWERPST?l?chargez votre diplome!
442.524DENIS Arnaud32BELKNAUF3:01:226:03 9.9375senANDENNET?l?chargez votre diplome!
443.194FDETHOREY Christelle46FRAACGV3:02:046:05 9.8910f45ECROUVEST?l?chargez votre diplome!
444.405FDE WIT Vera27NLD3:02:266:05 9.8718damSUSTERENT?l?chargez votre diplome!
445.620GEYS Robert70BEL3:02:296:05 9.862h70T?l?chargez votre diplome!
446.391MARZULLO Girolamo48ITA3:03:036:07 9.8369h45NIVELLEST?l?chargez votre diplome!
447.584COOPMAN Jonas29BEL3:03:176:07 9.8276senT?l?chargez votre diplome!
448.325BREMS Gunter43BEL3:03:176:07 9.8271h40GEETBETST?l?chargez votre diplome!
449.110VAN ACKER Thierry59FRA3:03:176:07 9.8235h55VILLENEUVE D'ASCQT?l?chargez votre diplome!
450.291DE BECKER Guy65BEL3:04:106:09 9.774h65HEINSTERT-ATTERTT?l?chargez votre diplome!
451.255FKAMINSKAS Kertu28EST3:04:236:09 9.7619damMAASTRICHTT?l?chargez votre diplome!
452.330FOLIVIER Stephanie47FRA3:04:366:10 9.7511f45LILLET?l?chargez votre diplome!
453.73BRASSELLE Christian60BELJCPMF JUPRELLE3:04:536:10 9.7418h60SLINST?l?chargez votre diplome!
454.349BUYDENS Jean-Marc52BEL3:05:386:12 9.7057h50NEUPRÉT?l?chargez votre diplome!
455.479SPONNIK Bjorn28NLD3:05:446:12 9.6977senLANAKENT?l?chargez votre diplome!
456.426VISSCHERS Johan63NLD3:06:026:13 9.6819h60ELSLOOT?l?chargez votre diplome!
457.452JANSSENS Roland58BELTORTUES MESLINO3:06:216:13 9.6636h55LENST?l?chargez votre diplome!
458.132ZSOLT Radics48HUNGL8 SPORT3:07:496:16 9.5870h45KÖLNT?l?chargez votre diplome!
459.122FMEGYERI Ferencne44HUN3:07:506:16 9.5815f40KÖLNT?l?chargez votre diplome!
460.355DIRICKS Michael41BEL3:07:556:16 9.5872h40OUPEYET?l?chargez votre diplome!
461.488GRUSELLE Jonathan41BEL3:08:266:17 9.5573h40COURRIEREST?l?chargez votre diplome!
462.135FBEUVENS Bianca39BELJCP3:08:346:18 9.559f35GEMMENICHT?l?chargez votre diplome!
463.141DROOGHAAG Patrick36BELJCP3:08:356:18 9.5561h35GEMMENICHT?l?chargez votre diplome!
464.317AMBUHL Vincent50CHEBERLINUS3:09:156:19 9.5158h50BRUXELLEST?l?chargez votre diplome!
465.495FNIVELLE Nele40BEL3:09:206:19 9.5116f40BILZENT?l?chargez votre diplome!
466.81DENEUMOSTIER Jérôme33BEL3:09:206:19 9.5178senHUYT?l?chargez votre diplome!
467.483LOCKMAN Denis34BELJOGIN BASTOGNE 3:09:276:19 9.5079senBASTOGNET?l?chargez votre diplome!
468.120FERKET Alex45NLDRUN EN FUN3:09:406:20 9.4971h45AST?l?chargez votre diplome!
469.54FCHIF Frédérique34BEL3:10:026:21 9.4720damMONT-SUR-MARCHIENNET?l?chargez votre diplome!
470.188HERTELEER Christian68BEL3:10:026:21 9.475h65BELLEMT?l?chargez votre diplome!
471.358HENRIOULLE Jérôme23BEL3:10:036:21 9.4780senCHÂTELETT?l?chargez votre diplome!
472.113DUYKERS Gaston57NLDMAASRUNNERS3:10:036:21 9.4737h55GRONSVELDT?l?chargez votre diplome!
473.180FGROGNET Sonia56BELJAMES3:10:036:21 9.474f55LOUVAIN-LA-NEUVET?l?chargez votre diplome!
474.41FJUSTEN Lydia56DEULG LAACHER SEE3:10:046:21 9.475f55MONREALT?l?chargez votre diplome!
475.42JUSTEN Harald55DEULG LAACHER SEE3:10:046:21 9.4738h55MONREALT?l?chargez votre diplome!
476.362FWILLEMS Jonne29NLD3:10:046:21 9.4721damNEERBEEKT?l?chargez votre diplome!
477.520CLAEREBOUDT Jan56BEL3:10:056:21 9.4739h55LINTT?l?chargez votre diplome!
478.618DE KEYSER Gust70BEL3:10:056:21 9.473h70VLEZENBEEKT?l?chargez votre diplome!
479.107FBOSCO Cathy41BEL3:10:066:21 9.4717f40PETIT RECHAINT?l?chargez votre diplome!
480.265FSAUVAGE Catherine40BELWRC LIERNEUX3:10:356:22 9.4418f40LIERNEUXT?l?chargez votre diplome!
481.258FLAWARRÉE Audrey39BELWRC LIERNEUX3:10:356:22 9.4410f35LIERNEUXT?l?chargez votre diplome!
482.256KLEIN Hughes52LUX3:10:386:22 9.4459h50MARCHE EN FAMENNET?l?chargez votre diplome!
483.560FVAN DOOREN Petra43BEL3:10:566:22 9.4319f40BURCHTT?l?chargez votre diplome!
484.39PEELMAN Nico Casa Verde50BEL3:11:036:23 9.4260h50DENDERMONDET?l?chargez votre diplome!
485.507KROENER Michael46DEU3:11:266:23 9.4072h45TONGERENT?l?chargez votre diplome!
486.508ROMPEN Thibaut42BEL3:12:126:25 9.3774h40SOUMAGNET?l?chargez votre diplome!
487.140DELGIJER Marc58NLD3:12:336:26 9.3540h55PRINSENBEEKT?l?chargez votre diplome!
488.262RASKINET Philippe48BELAR-DUO SPRL3:13:086:27 9.3273h45HERMALLE-SOUS-ARGENTEAUT?l?chargez votre diplome!
489.226WULZ, DR. Valentin73AUTKLC-KLAGENFURT3:13:356:28 9.304h70KLAGENFURTT?l?chargez votre diplome!
490.443FLELIE Cynthia28BEL3:13:466:28 9.2922damZELET?l?chargez votre diplome!
491.257LASCHET Anthony22BEL3:15:066:31 9.2381senWELKENRAEDTT?l?chargez votre diplome!
492.249FBORGIGNONS Christianne39NLD3:15:226:31 9.2111f35MAASTRICHTT?l?chargez votre diplome!
493.489CARLIER Daniel46BEL3:16:186:33 9.1774h45BRUXELLEST?l?chargez votre diplome!
494.309CARLIER Serge48BEL3:16:186:33 9.1775h45NEUBIBERGT?l?chargez votre diplome!
495.171BOUIT Noureddin42BELSP&O3:16:196:33 9.1775h40BONHEIDENT?l?chargez votre diplome!
496.432BAIOCCHI Luca46BELCHC3:16:206:33 9.1776h45CHERATTET?l?chargez votre diplome!
497.78MCDONALD Alistair19FRA3:16:456:34 9.1582senMAASTRICHTT?l?chargez votre diplome!
498.611FDE WEVER Lore28BEL3:16:456:34 9.1523damT?l?chargez votre diplome!
499.397BASTIEN François38BEL3:16:496:34 9.1562h35GEMBLOUXT?l?chargez votre diplome!
500.18DUCHATEAU René50BEL3:16:516:34 9.1461h50BINKOMT?l?chargez votre diplome!
DNF: did not finish; DSQ: disqualified; Speed in km/h
Page: [1] 2